Location: *
(46.3500°N, 10.9000°E)
Time: 16:46:19
(UTC+00:00)

Explorer 7 - All Passes

Search period start: 19 April 2021 00:00
Search period end: 29 April 2021 00:00
Orbit: 484 x 677 km, 50.3° (Epoch: 19 April)

Date Brightness Start Highest point End Pass type
(mag) Time Alt. Az. Time Alt. Az. Time Alt. Az.
19 Apr - 01:29:26 10° WNW 01:33:52 49° SSW 01:38:30 10° SE visible
19 Apr - 03:12:04 10° WSW 03:13:41 12° SW 03:15:20 10° SSW visible
19 Apr - 18:52:21 10° SSW 18:55:49 29° SE 18:59:29 10° E visible
19 Apr - 20:31:54 10° WSW 20:36:01 78° NNW 20:40:27 10° ENE visible
19 Apr - 22:12:43 10° WNW 22:16:55 50° N 22:21:22 10° ENE visible
19 Apr - 23:53:21 10° WNW 23:57:49 77° NNE 00:02:33 10° ESE night (unlit)
20 Apr - 01:34:02 10° WNW 01:38:13 34° SW 01:42:32 10° SSE night (unlit)
20 Apr - 18:56:20 10° SW 19:00:06 43° SE 19:04:08 10° ENE visible
20 Apr - 20:36:27 10° W 20:40:33 63° NNW 20:44:56 10° ENE visible
20 Apr - 22:17:17 10° WNW 22:21:29 51° N 22:25:59 10° E visible
20 Apr - 23:57:49 10° WNW 00:02:18 84° SSW 00:07:02 10° ESE night (unlit)
21 Apr - 01:38:48 10° W 01:42:29 24° SW 01:46:17 10° S night (unlit)
21 Apr - 17:22:50 10° SSE 17:24:42 13° SE 17:26:39 10° ESE daylight
21 Apr - 19:00:32 10° SW 19:04:29 62° SSE 19:08:41 10° ENE visible
21 Apr - 20:41:02 10° W 20:45:06 54° N 20:49:27 10° ENE visible
21 Apr - 22:21:48 10° WNW 22:26:03 56° N 22:30:35 10° E visible
22 Apr - 00:02:18 10° WNW 00:06:43 62° SSW 00:11:23 10° SE night (unlit)
22 Apr - 01:43:54 10° W 01:46:42 16° SW 01:49:33 10° S night (unlit)
22 Apr - 17:25:57 10° S 17:28:53 20° SE 17:31:56 10° E daylight
22 Apr - 19:04:54 10° WSW 19:08:53 86° SSE 19:13:10 10° ENE visible
22 Apr - 20:45:37 10° W 20:49:40 50° N 20:53:59 10° ENE visible
22 Apr - 22:26:18 10° WNW 22:30:36 66° NNE 22:35:10 10° E visible
23 Apr - 00:06:51 10° WNW 00:11:06 44° SW 00:15:34 10° SE night (unlit)
23 Apr - 17:29:40 10° SSW 17:33:07 31° SE 17:36:45 10° E daylight
23 Apr - 19:09:23 10° WSW 19:13:23 73° NNW 19:17:38 10° ENE visible
23 Apr - 20:50:12 10° WNW 20:54:15 49° N 20:58:33 10° ENE visible
23 Apr - 22:30:46 10° WNW 22:35:05 81° NNE 22:39:43 10° ESE visible
24 Apr - 00:11:29 10° W 00:15:25 30° SW 00:19:31 10° SSE night (unlit)
24 Apr - 17:33:42 10° SW 17:37:26 46° SSE 17:41:22 10° ENE daylight
24 Apr - 19:13:55 10° W 19:17:53 59° NNW 19:22:07 10° ENE visible
24 Apr - 20:54:44 10° WNW 20:58:49 51° N 21:03:09 10° E visible
24 Apr - 22:35:13 10° WNW 22:39:33 78° SSW 22:44:09 10° ESE visible
25 Apr - 00:16:18 10° W 00:19:40 21° SW 00:23:09 10° S night (unlit)
25 Apr - 15:59:54 10° SSE 16:01:59 14° SE 16:04:08 10° E daylight
25 Apr - 17:37:56 10° SW 17:41:48 68° SSE 17:45:53 10° ENE daylight
25 Apr - 19:18:30 10° W 19:22:26 51° N 19:26:37 10° ENE visible
25 Apr - 20:59:14 10° WNW 21:03:22 57° NNE 21:07:45 10° E visible
25 Apr - 22:39:42 10° WNW 22:43:57 56° SSW 22:48:27 10° SE visible
26 Apr - 00:21:37 10° WSW 00:23:52 14° SW 00:26:10 10° SSW night (unlit)
26 Apr - 16:03:10 10° S 16:06:10 22° SE 16:09:16 10° E daylight
26 Apr - 17:42:20 10° WSW 17:46:14 88° NNW 17:50:22 10° ENE daylight
26 Apr - 19:23:05 10° WNW 19:27:00 48° N 19:31:09 10° ENE visible
26 Apr - 21:03:42 10° WNW 21:07:53 68° NNE 21:12:20 10° ESE visible
26 Apr - 22:44:16 10° WNW 22:48:18 39° SW 22:52:35 10° SSE visible
27 Apr - 16:06:58 10° SSW 16:10:25 33° SE 16:14:01 10° ENE daylight
27 Apr - 17:46:50 10° WSW 17:50:42 68° NNW 17:54:49 10° ENE daylight
27 Apr - 19:27:38 10° WNW 19:31:34 48° N 19:35:44 10° ENE visible
27 Apr - 21:08:09 10° WNW 21:12:21 86° NNE 21:16:50 10° ESE visible
27 Apr - 22:48:56 10° W 22:52:36 27° SW 22:56:26 10° SSE visible
28 Apr - 16:11:03 10° SW 16:14:44 50° SSE 16:18:36 10° ENE daylight
28 Apr - 17:51:22 10° W 17:55:13 56° NNW 17:59:18 10° ENE daylight
28 Apr - 19:32:10 10° WNW 19:36:07 51° N 19:40:19 10° E visible
28 Apr - 21:12:36 10° WNW 21:16:48 72° SSW 21:21:14 10° SE visible
28 Apr - 22:53:52 10° W 22:56:51 18° SW 22:59:56 10° S visible
